Location: Lobsann
(48.9630°N, 7.8472°E)
Time: 10:12:11
(UTC+00:00)

Daily predictions for brighter satellites

Satellite Brightness Start Highest point End
(mag) Time Altitude Azimuth Time Altitude Azimuth Time Altitude Azimuth
CZ-4C R/B 3.8 18:17:26 10° W 18:22:26 36° NNW 18:28:21 10° NE
STARLINK-1083 3.6 18:19:58 10° WNW 18:24:02 85° NNE 18:28:05 10° ESE
STARLINK-1098 4.2 18:20:32 10° WNW 18:24:35 50° N 18:28:38 10° E
STARLINK-1237 4.5 18:21:06 10° SSW 18:24:38 30° SE 18:28:12 10° ENE
Cosmos 1709 Rocket 4.4 18:18:55 10° N 18:24:49 42° ENE 18:30:37 10° SE
STARLINK-1214 3.5 18:22:11 10° SW 18:25:07 38° SE 18:28:05 10° ENE
FREGAT/IRIS 3.3 18:23:10 10° SE 18:25:34 28° ENE 18:27:59 10° N
STARLINK-1245 3.5 18:22:40 10° SW 18:25:36 39° SE 18:28:32 10° ENE
STARLINK-1238 3.5 18:23:05 10° SW 18:26:02 39° SE 18:29:00 10° ENE
Cosmos 1331 Rocket 4.0 18:21:04 10° NNW 18:26:14 65° ENE 18:31:21 10° SSE
STARLINK-1205 3.4 18:24:00 10° SW 18:26:57 40° SE 18:29:54 10° ENE
STARLINK-1204 3.4 18:24:26 10° SW 18:27:23 40° SE 18:30:20 10° ENE
Cosmos 1674 2.6 18:23:50 10° N 18:27:37 88° E 18:31:21 10° S
STARLINK-1125 3.6 18:24:35 10° WNW 18:28:39 88° NNE 18:32:42 10° ESE
Cosmos 2219 Rocket 3.3 18:23:24 10° SW 18:28:52 49° NW 18:34:22 10° NNE
Orbus 7S? 4.1 18:26:06 10° WNW 18:29:06 33° SW 18:31:21 10° SSE
STARLINK-1202 4.4 18:25:37 10° SSW 18:29:13 32° SE 18:32:51 10° ENE
SL-14 R/B 4.0 18:25:35 10° N 18:29:22 36° ENE 18:33:06 10° SE
STARLINK-1123 4.2 18:25:34 10° WNW 18:29:37 51° N 18:33:40 10° E
KORONAS-FOTON 3.8 18:26:54 10° N 18:30:45 88° ENE 18:34:33 10° S
COSMO-SKYMED 1 4.4 18:27:39 10° N 18:31:40 37° WNW 18:35:39 10° SW
STARLINK-1109 3.6 18:28:52 10° WNW 18:32:56 88° SSW 18:37:00 10° ESE
STARLINK-1246 4.3 18:30:28 10° SSW 18:34:11 35° SE 18:37:55 10° ENE
STARLINK-1097 4.2 18:30:32 10° WNW 18:34:35 52° N 18:38:39 10° E
Cosmos 1943 Rocket 3.2 18:31:38 10° NNW 18:36:28 30° NE 18:41:18 10° ESE
STARLINK-1091 3.6 18:33:32 10° WNW 18:37:36 84° SSW 18:41:39 10° ESE
MONITOR-E 4.3 18:35:11 10° SE 18:37:39 37° ENE 18:40:10 10° N
Cosmos 1980 3.8 18:32:38 10° SSW 18:38:20 89° ESE 18:44:04 10° NNE
Cosmos 1766 3.2 18:34:41 10° S 18:38:40 74° E 18:42:39 10° NNE
STARLINK-1099 4.1 18:35:32 10° WNW 18:39:36 53° N 18:43:38 10° E
S3M 4.0 18:34:14 10° S 18:40:35 78° E 18:47:00 10° NNE
Ariane Rocket 3.0 18:37:14 10° SSE 18:42:18 81° ENE 18:47:24 10° NNW
Cosmos 2084 4.1 18:38:11 10° SW 18:42:38 62° NW 18:47:05 10° NE
YAOGAN 1 4.5 18:38:41 10° SSW 18:42:38 34° W 18:46:37 10° NNW
Cosmos 1386 Rocket 4.4 18:36:58 10° N 18:43:04 87° E 18:49:05 10° S
STARLINK-1224 4.1 18:39:19 10° SSW 18:43:06 40° SE 18:46:54 10° ENE
SL-08 ROCKET BODY 4.5 18:37:05 10° N 18:43:16 86° E 18:49:19 10° S
STARLINK-1104 4.1 18:40:32 10° WNW 18:44:37 54° NNE 18:48:25 12° E
Cosmos 1455 Rocket 3.0 18:41:22 10° S 18:45:38 60° E 18:49:57 10° NNE
Cosmos 1110 Rocket 4.2 18:41:50 10° NNW 18:47:07 80° WSW 18:52:19 10° SSE
STARLINK-1225 4.0 18:43:57 10° SW 18:47:47 43° SE 18:51:37 10° ENE
STARLINK-1144 4.0 18:45:30 10° WNW 18:49:35 56° NNE 18:53:11 13° E
STARLINK-1203 3.8 18:45:54 10° SW 18:49:41 47° SE 18:53:29 10° ENE
STARLINK-1072 3.7 18:46:46 10° WNW 18:50:45 71° SSW 18:54:14 13° SE
Cosmos 1892 Rocket 3.9 18:46:17 10° NNW 18:50:46 72° W 18:55:12 10° S
SL-16 R/B 2.5 18:46:32 10° S 18:51:52 44° ESE 18:57:13 10° NE
Cosmos 1626 Rocket 3.9 18:48:06 10° N 18:52:21 44° ENE 18:56:32 10° SSE
STARLINK-1230 3.9 18:48:31 10° SW 18:52:23 46° SE 18:56:16 10° ENE
Cosmos 2333 Rocket 4.0 18:47:17 10° WSW 18:52:27 35° NW 18:57:38 10° NNE
STARLINK-1103 4.0 18:50:28 10° WNW 18:54:35 57° NNE 18:57:58 14° E
USA 186 1.8 18:51:17 10° SSE 18:54:43 78° ENE 18:58:07 10° N
STARLINK-1096 3.7 18:51:13 10° WNW 18:55:11 67° SSW 18:58:31 14° SE
Cosmos 1626 2.1 18:51:38 10° N 18:55:20 63° ENE 18:59:00 10° SSE
Cosmos 2084 Rocket 4.4 18:51:21 10° NNW 18:55:29 36° NE 18:58:47 15° E
STARLINK-1234 2.7 18:52:38 10° WSW 18:55:38 83° SSE 18:58:25 12° ENE
Cosmos 1953 3.8 18:53:53 14° ESE 18:55:44 18° E 18:58:30 10° NE
ARGOS Delta rocket 4.2 18:50:42 10° S 18:55:48 83° WSW 19:01:13 10° NNW
STARLINK-1243 3.8 18:53:10 10° SW 18:57:04 49° SE 19:00:53 11° ENE
NOSS 2-1 (E) 4.1 18:55:04 10° WSW 18:58:22 47° NW 19:02:11 10° NE
Okean 1-7 Rocket 3.9 18:54:17 10° NNW 18:58:40 69° W 19:03:02 10° S
STARLINK-1101 3.9 18:55:28 10° WNW 18:59:35 59° NNE 19:02:46 16° E
STARLINK-1079 3.8 18:55:42 10° WNW 18:59:39 63° SSW 19:02:49 15° SE
Cosmos 1602 Rocket 4.0 18:55:38 10° N 18:59:54 42° ENE 19:03:55 11° SE
STARLINK-1236 3.7 18:57:47 10° SW 19:01:43 53° SSE 19:05:23 12° ENE
ATLAS 2AS CENTAUR R/B 4.0 18:57:05 10° NW 19:04:05 33° NNE 19:10:15 12° E
STARLINK-1116 3.9 19:00:11 10° WNW 19:04:08 59° SSW 19:07:08 16° SE
STARLINK-1102 3.9 19:00:27 10° WNW 19:04:34 62° NNE 19:07:32 18° E
H-2A R/B 2.2 19:01:19 10° S 19:06:39 78° WSW 19:11:52 10° NNW
Aureole 2 Rocket 3.8 19:06:27 10° N 19:09:21 23° ENE 19:10:31 20° E
STARLINK-1111 3.8 19:05:26 10° WNW 19:09:33 64° NNE 19:12:19 20° E
Cosmos 883 Rocket 4.4 19:04:36 10° S 19:10:47 80° E 19:17:05 10° N
STARLINK-1269 3.6 19:07:07 10° SW 19:11:06 60° SSE 19:14:25 14° ENE
Cosmos 1544 Rocket 3.5 19:08:40 10° S 19:13:03 86° E 19:17:31 10° N
STARLINK-1094 4.1 19:09:10 10° WNW 19:13:05 52° SW 19:15:46 19° SE
ERBS 3.7 19:09:56 10° W 19:13:06 38° NNW 19:16:19 10° NE
STARLINK-1073 3.8 19:10:25 10° WNW 19:14:33 66° NNE 19:17:06 22° E
USA 234 3.3 19:08:20 10° ENE 19:14:45 55° SE 19:21:08 10° SW
Cosmos 2297 3.8 19:09:15 10° NNW 19:14:55 78° WSW 19:20:36 10° SSE
CZ-2C R/B 3.9 19:10:36 10° NNE 19:15:17 52° E 19:19:52 10° S
STARLINK-1200 3.5 19:11:47 10° SW 19:15:47 64° SSE 19:18:56 16° ENE
STARLINK-1117 4.2 19:13:42 10° WNW 19:17:35 48° SW 19:20:07 20° SSE
STARLINK-1121 3.7 19:15:24 10° WNW 19:19:33 69° NNE 19:21:53 25° E
STARLINK-1192 3.5 19:16:24 10° SW 19:20:26 69° SSE 19:23:24 17° ENE
STARLINK-1078 4.3 19:18:12 10° WNW 19:22:04 45° SW 19:24:26 21° SSE
Cosmos 2237 Rocket 3.2 19:16:42 10° SW 19:22:09 50° NW 19:27:40 10° NNE
STARLINK-1106 3.7 19:20:22 10° WNW 19:24:31 72° NNE 19:26:39 27° E
Cosmos 1302 Rocket 4.1 19:19:23 10° NNW 19:24:40 79° WSW 19:29:43 11° SSE
STARLINK-1244 3.4 19:21:11 10° SW 19:25:12 73° SSE 19:28:01 19° ENE
STARLINK-1201 3.0 19:22:19 10° WSW 19:25:35 80° NNW 19:27:31 23° ENE
STARLINK-1108 4.4 19:22:45 10° WNW 19:26:35 42° SW 19:28:47 22° SSE
CZ-2C R/B 2.9 19:22:21 10° NNE 19:27:18 42° E 19:32:10 10° SSE
Cosmos 1992 Rocket 4.3 19:22:44 10° NNW 19:27:49 49° ENE 19:30:33 25° ESE
Cosmos 2184 Rocket 4.3 19:21:54 10° N 19:28:03 49° ENE 19:32:14 20° SE
Cosmos 1758 Rocket 4.1 19:24:27 10° N 19:28:35 38° ENE 19:30:09 28° ESE
Cosmos 1269 Rocket 4.2 19:24:01 10° SSW 19:29:19 79° WNW 19:34:39 10° NNE
STARLINK-1112 3.6 19:25:22 10° WNW 19:29:32 76° NNE 19:31:27 30° ESE
STARLINK-1138 3.4 19:25:52 10° WSW 19:29:54 77° SSE 19:32:32 21° ENE
STARLINK-1209 3.2 19:28:04 10° W 19:30:57 57° NNW 19:32:14 28° NE
STARLINK-1071 4.5 19:27:17 10° WNW 19:31:04 40° SW 19:33:08 22° SSE
STARLINK-1228 3.2 19:29:04 10° W 19:31:54 56° NNW 19:33:08 29° NE
STARLINK-1128 3.6 19:30:22 10° WNW 19:34:32 79° NNE 19:36:15 34° ESE
STARLINK-1143 3.4 19:30:38 10° WSW 19:34:41 81° SSE 19:37:07 23° ENE
ARGOS 3.8 19:29:31 10° S 19:34:49 55° W 19:40:08 10° NNW
SL-8 R/B 3.6 19:30:51 10° W 19:35:39 85° S 19:38:02 30° E
Cosmos 2251 Rocket 4.0 19:31:17 10° S 19:36:12 39° ESE 19:41:10 10° NE
SL-24 R/B 4.0 19:32:28 10° NNE 19:37:14 76° E 19:41:21 10° S
STARLINK-1113 3.6 19:35:20 10° WNW 19:39:30 83° NNE 19:41:02 38° ESE
Cosmos 1470 2.9 19:38:04 10° SSW 19:41:56 72° WNW 19:45:50 10° N
Cosmos 1606 Rocket 4.3 19:43:16 31° E 19:43:16 31° E 19:47:07 10° NNE
STARLINK-1119 3.5 19:40:18 10° WNW 19:44:28 87° NNE 19:45:48 42° ESE
STARLINK-1241 3.4 19:41:05 10° WSW 19:45:07 89° NNW 19:47:06 29° ENE
STARLINK-1233 3.3 19:42:15 10° W 19:45:22 60° NNW 19:46:21 37° NE
STARLINK-1212 3.3 19:42:43 10° W 19:45:50 60° NNW 19:46:46 38° NE
SL-08 RB Rocket 4.4 19:41:35 10° S 19:45:59 52° W 19:50:28 10° NNW
Cosmos 2315 Rocket 4.3 19:39:55 10° SSW 19:46:12 73° W 19:52:36 10° N
STARLINK-1105 3.3 19:43:09 10° W 19:46:16 60° NNW 19:47:13 38° NE
STARLINK-1206 3.3 19:43:39 10° W 19:46:45 59° NNW 19:47:38 39° NE
SJ-6B 4.3 19:43:21 10° SSW 19:47:09 38° W 19:51:02 10° NNW
STARLINK-1247 3.3 19:44:06 10° W 19:47:11 59° NNW 19:48:03 40° NE
MetOp-A 4.3 19:42:29 12° S 19:47:32 74° WSW 19:52:55 10° NNW
STARLINK-1227 3.3 19:44:31 10° W 19:47:37 59° NNW 19:48:30 39° NE
ISS -3.8 19:44:19 10° WNW 19:47:41 77° NNE 19:48:11 60° E
Resurs 1-3 3.7 19:44:43 19° S 19:47:49 77° WSW 19:52:14 10° NNW
ATLAS CENTAUR R/B 4.5 19:47:24 10° NNW 19:47:53 10° NNW 19:48:22 10° N
STARLINK-1218 3.3 19:45:01 10° W 19:48:05 58° NNW 19:48:55 40° NE
STARLINK-1226 3.3 19:45:28 10° W 19:48:34 58° NNW 19:49:23 41° NE
Cosmos 2154 Rocket 4.4 19:42:50 10° N 19:48:56 46° ENE 19:51:32 31° SE
STARLINK-1254 3.4 19:45:52 10° W 19:48:57 58° NNW 19:49:48 40° NE
STARLINK-1215 3.4 19:46:23 10° W 19:49:27 57° NNW 19:50:14 41° NE
STARLINK-1114 3.5 19:45:18 10° WNW 19:49:28 89° SSW 19:50:36 47° ESE
ERS-1 Rocket 4.1 19:48:48 25° ENE 19:49:38 26° ENE 19:53:45 10° N
STARLINK-1239 3.5 19:45:40 10° WSW 19:49:42 85° NNW 19:51:30 32° ENE
Cosmos 1758 3.7 19:45:47 10° SSW 19:49:51 66° W 19:53:57 10° N
STARLINK-1231 3.4 19:46:49 10° W 19:49:53 57° NNW 19:50:39 42° NE
STARLINK-1232 3.4 19:47:43 10° W 19:50:48 56° NNW 19:51:31 42° NE
STARLINK-1217 3.4 19:48:10 10° W 19:51:15 56° NNW 19:51:58 43° NNE
USA 245 4.5 19:50:07 35° ESE 19:51:41 45° ENE 19:57:11 10° N
STARLINK-1208 3.4 19:48:35 10° W 19:51:41 56° NNW 19:52:25 42° NE
IRIDIUM 104 4.3 19:46:53 10° N 19:52:09 87° W 19:56:26 16° S
STARLINK-1229 3.4 19:49:04 10° W 19:52:09 56° NNW 19:52:49 44° NNE
BREEZE-M DEB (TANK) 3.2 19:46:08 10° WNW 19:52:30 86° SSW 19:53:10 55° ESE
STARLINK-1271 3.4 19:49:32 10° W 19:52:37 55° NNW 19:53:17 44° NNE
STARLINK-1270 3.4 19:50:00 10° W 19:53:04 55° NNW 19:53:42 44° NNE
BREEZE M DEB (TANK) 4.4 19:44:58 10° SW 19:53:24 32° SSE 19:53:49 31° SSE
STARLINK-1154 3.4 19:50:26 10° W 19:53:31 55° NNW 19:54:07 45° NNE
CZ-2C R/B 4.5 19:49:02 10° SSW 19:53:38 34° W 19:58:04 10° NNW
STARLINK-1240 3.5 19:50:17 10° WSW 19:54:18 81° NNW 19:55:56 35° ENE
STARLINK-1197 3.4 19:51:20 10° W 19:54:25 54° NNW 19:54:59 45° NNE
STARLINK-1130 (DARKSAT) 3.5 19:50:16 10° WNW 19:54:26 85° SSW 19:55:22 53° ESE
STARLINK-1189 3.5 19:51:48 10° W 19:54:52 54° NNW 19:55:26 46° NNE
Resurs 01 Rocket 1.5 19:53:05 31° SSE 19:55:10 89° WSW 19:59:37 10° NNW
Cosmos 2369 Rocket 2.1 19:49:38 10° NNW 19:55:23 76° ENE 19:57:50 35° SE
STARLINK-1187 3.6 19:52:40 10° W 19:55:44 51° NNW 19:56:20 43° NNE
STARLINK-1188 3.5 19:52:42 10° W 19:55:46 54° NNW 19:56:17 46° NNE
STARLINK-1198 3.5 19:52:56 10° W 19:56:00 54° NNW 19:56:31 46° NNE
SPOT 5 4.1 19:56:06 21° ENE 19:56:06 21° ENE 19:59:19 10° NNE
STARLINK-1235 3.7 19:53:23 10° W 19:56:28 48° NNW 19:57:05 41° NNE
STARLINK-1199 3.5 19:54:39 10° W 19:57:44 53° NNW 19:58:13 47° NNE
STARLINK-1191 3.5 19:55:06 10° W 19:58:11 53° NNW 19:58:39 47° NNE
STARLINK-67 3.9 19:55:47 10° W 19:58:04 34° NNW 19:58:04 34° NNW
STARLINK-1210 3.5 19:55:33 10° W 19:58:37 53° NNW 19:59:04 47° NNE
STARLINK-1216 3.6 19:54:55 10° WSW 19:58:57 78° NNW 20:00:23 38° ENE
Cosmos 2263 4.3 19:53:29 10° NNW 19:59:05 61° ENE 20:01:00 39° ESE
STARLINK-1221 3.5 19:56:01 10° W 19:59:06 52° NNW 19:59:33 47° NNE
STARLINK-1084 3.5 19:55:15 10° WNW 19:59:24 80° SSW 20:00:09 58° SE
STARLINK-1219 3.5 19:56:28 10° W 19:59:33 52° NNW 19:59:57 48° NNE
STARLINK-1222 3.5 19:56:54 10° W 19:59:59 52° NNW 20:00:22 48° NNE
STARLINK-1211 3.5 19:57:22 10° W 20:00:27 52° NNW 20:00:48 48° NNE
STARLINK-1214 3.5 19:57:50 10° W 20:00:55 51° NNW 20:01:15 48° NNE
IRIDIUM 114 4.5 19:56:04 10° N 20:01:18 73° W 20:05:35 15° S
STARLINK-1245 3.5 19:58:19 10° W 20:01:23 51° NNW 20:01:40 49° N
STARLINK-1238 3.5 19:58:44 10° W 20:01:48 51° NNW 20:02:07 48° N
STARLINK-1205 3.5 19:59:41 10° W 20:02:45 50° NNW 20:02:59 49° N
STARLINK-1204 3.5 20:00:07 10° W 20:03:09 50° NNW 20:03:23 49° N
STARLINK-1237 3.6 19:59:34 10° WSW 20:03:36 74° NNW 20:04:52 42° NE
STARLINK-1098 3.5 20:00:13 10° WNW 20:04:22 76° SSW 20:04:55 63° SSE
SPOT 3 Rocket 4.5 20:00:49 10° S 20:05:49 47° W 20:10:52 10° NNW
Cosmos 1726 2.0 20:06:30 72° ENE 20:06:30 72° ENE 20:10:06 10° NNE
Landsat 7 4.1 20:06:34 44° E 20:07:07 47° ENE 20:11:41 10° N
Meteor 1-21 Rocket 4.4 20:02:15 10° NNW 20:07:48 68° W 20:11:31 21° S
STARLINK-1202 3.7 20:04:13 10° WSW 20:08:14 71° NNW 20:09:18 46° NE
Nadezhda 1 Rocket 4.1 20:06:17 31° SSE 20:09:14 57° E 20:15:30 10° NNE
STARLINK-1123 3.5 20:05:14 10° WNW 20:09:22 71° SSW 20:09:44 66° S
Cosmos 2228 3.2 20:11:03 51° ENE 20:11:03 51° ENE 20:14:47 10° NNE
MOS 1 Rocket 3.6 20:07:07 10° N 20:12:20 81° WNW 20:17:43 10° SSW
CZ-4C R/B 4.5 20:08:08 10° NW 20:12:52 23° N 20:18:14 10° NE
SAR-Lupe-2 4.2 20:09:44 10° NNE 20:12:21 45° NNE 20:12:21 45° NNE
STARLINK-1246 3.8 20:09:19 10° WSW 20:13:22 68° NNW 20:14:18 49° NE
STARLINK-1097 3.6 20:10:11 10° WNW 20:14:19 67° SSW 20:14:29 66° SSW
Cosmos 292 Rocket 4.1 20:12:51 10° NNW 20:17:35 62° WSW 20:19:07 40° S
Cosmos 1943 3.3 20:19:28 49° ESE 20:19:28 49° ESE 20:24:45 10° NE
STARLINK-1099 3.7 20:15:11 10° WNW 20:19:17 63° SSW 20:19:17 63° SSW
Cosmos 1943 Rocket 2.6 20:15:08 10° NW 20:20:33 57° WSW 20:22:51 33° S
STARLINK-1224 3.9 20:18:13 10° W 20:22:14 63° NNW 20:22:45 56° NNE
Cosmos 2058 Rocket 4.3 20:24:09 30° NE 20:24:09 30° NE 20:26:53 10° NNE
Cosmos 2074 Rocket 4.2 20:16:38 10° NNW 20:22:52 70° W 20:26:45 24° S
NOSS 3-4 (A) 4.1 20:16:39 10° NW 20:23:19 54° NE 20:25:57 37° E
NOSS 3-4 (C) 4.1 20:16:45 10° NW 20:23:24 53° NE 20:26:03 37° E
STARLINK-1104 3.9 20:20:11 10° WNW 20:24:04 58° SW 20:24:04 58° SW
STARLINK-1225 3.9 20:22:57 10° W 20:26:57 61° NNW 20:27:17 58° N
Cosmos 1328 3.8 20:23:02 10° N 20:26:45 75° N 20:26:45 75° N
STARLINK-1203 3.9 20:24:40 10° W 20:28:34 57° NNW 20:28:44 57° N
STARLINK-1144 4.1 20:25:09 10° WNW 20:28:50 52° WSW 20:28:50 52° WSW
Cosmos 1437 4.4 20:26:35 10° NNW 20:28:31 32° NW 20:28:31 32° NW
STARLINK-1230 3.9 20:27:37 10° W 20:31:36 59° NNW 20:31:44 59° N
Cosmos 1953 3.5 20:29:29 20° SW 20:31:50 41° WNW 20:35:38 10° N
Meteor 2-10 4.3 20:28:33 19° SSW 20:32:30 72° WNW 20:38:04 10° N
SPOT 1/Viking Rocket 3.4 20:32:06 66° ESE 20:32:36 71° ENE 20:37:48 10° N
NOSS 3-3 (A) 3.8 20:27:45 10° SSW 20:33:34 67° SE 20:40:09 10° NE
NOSS 3-3 (C) 3.8 20:27:51 10° SSW 20:33:40 67° SE 20:40:16 10° NE
STARLINK-1103 4.3 20:30:09 10° WNW 20:33:37 47° WSW 20:33:37 47° WSW
Spot 2 Rocket 3.5 20:33:06 55° S 20:34:13 77° WSW 20:39:22 10° NNW
Cosmos 2084 Rocket 4.2 20:30:50 10° NW 20:35:06 45° SW 20:35:19 45° SW
SL-16 R/B 3.6 20:30:50 10° WSW 20:36:05 37° NW 20:41:21 10° NNE
STARLINK-1243 4.0 20:32:20 10° W 20:36:16 57° NNW 20:36:16 57° NNW
Cosmos 1610 Rocket 4.5 20:30:41 10° N 20:36:57 82° W 20:39:03 44° S
STARLINK-1236 4.2 20:37:02 10° W 20:40:45 54° NNW 20:40:45 54° NNW
IGS 5A 3.8 20:42:15 64° NNW 20:42:15 64° NNW 20:45:48 10° NNW
Aureole 2 Rocket 4.2 20:40:04 10° NW 20:42:44 28° W 20:42:44 28° W
Terra 2.6 20:49:36 42° NE 20:49:36 42° NE 20:53:18 10° N
CARTOSAT-1 4.3 20:50:52 47° N 20:50:52 47° N 20:54:05 10° N
Cosmos 2341 Rocket 3.9 20:46:46 10° N 20:53:08 76° E 20:53:51 68° SE
Cosmos 1703 4.4 20:49:51 10° NNW 20:53:09 41° WNW 20:53:09 41° WNW
Cosmos 1726 Rocket 4.0 20:55:08 59° NW 20:55:08 59° NW 20:59:05 10° N
ATLAS 2AS CENTAUR R/B 2.8 20:48:32 10° NW 20:56:17 77° NE 20:57:42 60° ESE
Cosmos 1603 3.8 20:53:25 20° SW 20:57:26 74° WNW 21:03:04 10° NNE
USA 234 3.5 20:51:25 10° NE 20:57:53 65° NNW 21:04:21 10° WSW
APEX 4.3 20:58:44 10° NNW 21:05:46 77° ENE 21:06:05 75° E
CZ-2C R/B 4.2 21:02:55 10° N 21:07:28 31° WNW 21:11:58 10° SW
Aureole 1 Rocket 4.2 21:07:15 62° S 21:08:34 75° ESE 21:15:10 10° NNE
COSMOS 2455 3.2 21:05:14 10° NNW 21:11:09 53° NE 21:11:10 53° NE
Cosmos 1461 4.4 21:12:08 10° NNW 21:15:09 36° N 21:15:09 36° N
Cosmos 2218 Rocket 3.9 21:15:40 10° N 21:21:25 73° NE 21:21:25 73° NE
Cosmos 1656 Rocket 4.2 21:17:19 10° NW 21:22:37 51° WSW 21:22:37 51° WSW
ERS-1 Rocket 3.7 21:28:47 47° WNW 21:28:47 47° WNW 21:33:04 10° NNW
ATLAS CENTAUR R/B 4.2 21:27:55 10° N 21:28:41 10° NNE 21:29:15 10° NNE
Resurs 01 Rocket 4.4 21:31:09 10° WSW 21:32:20 11° W 21:33:31 10° WNW
Cosmos 2181 Rocket 4.0 21:33:10 76° N 21:33:10 76° N 21:38:52 10° N
SPOT 5 4.1 21:35:18 35° NW 21:35:18 35° NW 21:38:06 10° NNW
Cosmos 2369 Rocket 4.1 21:34:46 10° NW 21:38:45 20° W 21:39:39 19° WSW
CZ-4C R/B 4.1 21:57:42 10° NW 22:03:30 31° NNE 22:06:33 23° ENE
Cosmos 2366 rocket 4.5 21:58:03 10° NNW 22:03:18 54° WNW 22:03:18 54° WNW
Mayak 1.4 22:06:00 10° N 22:06:55 16° N 22:06:55 16° N
NOSS 3-4 (A) 4.4 22:07:38 10° NW 22:13:24 47° W 22:13:24 47° W
NOSS 3-4 (C) 4.4 22:07:44 10° NW 22:13:29 47° W 22:13:29 47° W
Terra 4.1 22:28:29 19° WNW 22:28:29 19° WNW 22:30:33 10° NW
Cosmos 1697 Rocket 4.0 22:22:16 10° NNW 22:26:03 34° NNE 22:26:03 34° NNE
USA 234 4.2 22:34:15 10° ENE 22:40:23 45° N 22:46:31 10° WNW
ATLAS 2AS CENTAUR R/B 4.2 22:40:20 10° NW 22:45:08 27° W 22:45:08 27° W
Cosmos 1980 Rocket 3.7 22:47:21 10° NNW 22:50:54 31° NNE 22:50:54 31° NNE
Cosmos 2082 Rocket 4.4 23:15:19 17° NE 23:15:19 17° NE 23:16:45 10° NE
SL-16 R/B 4.4 23:21:37 21° ENE 23:22:25 21° NE 23:26:56 10° N
ATLAS 5 CENTAUR R/B 4.2 23:39:11 19° NNE 23:39:11 19° NNE 23:41:00 10° NNE
Cosmos 1833 Rocket 4.3 23:45:10 29° NNE 23:45:10 29° NNE 23:47:52 10° NNE
CZ-2D R/B 4.5 23:52:20 10° NE 23:54:16 16° ENE 23:54:16 16° ENE
